CCA755 ZSPD-VVNB

Flight info

Callsign CCA755
Flight time N/A
Altitude 34100
Route PIK93D PIKAS G330 UNTAN G345 OLRIS R343 MADUK W51 LEGIV W164 ADGOL W50 XSH W80 UDUMI W37 OLMIB W83 GOSMA R343 WUY R474 TEBAK/K0859F360 R474 NAKHA NAKHA3P
Aircraft A321/M-SDE3FGHIRWY/LB1

Departure

Time N/A
Airport Shanghai Pudong International Airport (ZSPD)

Arrival

Time 2026-05-08 12:05
Airport Noi Bai International Airport (VVNB)
Time Latitude Longitude Altitude Speed Heading
2026-05-08 11:41 22.31736 106.82632 34094 ft 433 kts 227°
2026-05-08 11:41 22.27423 106.78062 34093 ft 434 kts 227°
2026-05-08 11:42 22.23118 106.73487 34094 ft 434 kts 227°
2026-05-08 11:42 22.18809 106.68903 34094 ft 436 kts 227°
2026-05-08 11:43 22.14205 106.64619 34091 ft 438 kts 222°
2026-05-08 11:43 22.09469 106.60498 34091 ft 438 kts 222°
2026-05-08 11:43 22.07096 106.58432 33875 ft 439 kts 222°
2026-05-08 11:44 22.04730 106.56367 33331 ft 437 kts 222°
2026-05-08 11:44 22.02364 106.54303 32811 ft 438 kts 222°
2026-05-08 11:44 22.00035 106.52273 32299 ft 439 kts 221°
2026-05-08 11:44 21.97618 106.50166 31792 ft 441 kts 221°
2026-05-08 11:45 21.95278 106.48098 31295 ft 442 kts 223°
2026-05-08 11:45 21.92942 106.45929 30804 ft 445 kts 223°
2026-05-08 11:45 21.90618 106.43691 30324 ft 449 kts 224°
2026-05-08 11:45 21.88300 106.41425 29817 ft 452 kts 224°
2026-05-08 11:46 21.85962 106.39141 29256 ft 455 kts 224°
2026-05-08 11:46 21.83605 106.36855 28712 ft 457 kts 223°
2026-05-08 11:46 21.81241 106.34582 28179 ft 455 kts 223°
2026-05-08 11:46 21.78881 106.32332 27661 ft 452 kts 223°
2026-05-08 11:47 21.76527 106.30100 27124 ft 449 kts 223°
2026-05-08 11:47 21.74195 106.27890 26611 ft 446 kts 223°
2026-05-08 11:47 21.72031 106.25528 26074 ft 441 kts 229°
2026-05-08 11:47 21.70010 106.23047 25567 ft 439 kts 229°
2026-05-08 11:48 21.68002 106.20587 25069 ft 437 kts 229°
2026-05-08 11:48 21.65998 106.18138 24576 ft 435 kts 229°
2026-05-08 11:48 21.64004 106.15707 24081 ft 433 kts 229°
2026-05-08 11:48 21.62012 106.13283 23607 ft 432 kts 229°
2026-05-08 11:49 21.60030 106.10869 23057 ft 429 kts 229°
2026-05-08 11:49 21.58098 106.08435 22494 ft 427 kts 231°
2026-05-08 11:49 21.56262 106.05945 21947 ft 424 kts 232°
2026-05-08 11:49 21.54497 106.03426 21412 ft 420 kts 233°
2026-05-08 11:50 21.52773 106.00911 20854 ft 417 kts 233°
2026-05-08 11:50 21.51061 105.98420 20346 ft 412 kts 233°
2026-05-08 11:50 21.49381 105.96015 19813 ft 392 kts 232°
2026-05-08 11:50 21.47738 105.93770 19309 ft 373 kts 231°
2026-05-08 11:51 21.46131 105.91666 18811 ft 356 kts 230°
2026-05-08 11:51 21.44580 105.89676 18313 ft 343 kts 230°
2026-05-08 11:51 21.43057 105.87731 17778 ft 338 kts 230°
2026-05-08 11:51 21.41557 105.85808 17224 ft 333 kts 230°
2026-05-08 11:52 21.40099 105.83926 16710 ft 333 kts 230°
2026-05-08 11:52 21.38617 105.82005 16159 ft 332 kts 230°
2026-05-08 11:52 21.37087 105.80133 15604 ft 328 kts 227°
2026-05-08 11:52 21.35540 105.78386 15024 ft 326 kts 225°
2026-05-08 11:53 21.33956 105.76661 14442 ft 324 kts 225°
2026-05-08 11:53 21.32370 105.74950 13830 ft 323 kts 225°
2026-05-08 11:53 21.30788 105.73233 13169 ft 323 kts 225°
2026-05-08 11:53 21.29223 105.71521 12494 ft 321 kts 225°
2026-05-08 11:54 21.27668 105.69805 11840 ft 320 kts 225°
2026-05-08 11:54 21.26127 105.68093 11199 ft 318 kts 225°
2026-05-08 11:54 21.24598 105.66393 10565 ft 316 kts 226°
2026-05-08 11:54 21.23075 105.64703 9942 ft 314 kts 225°
2026-05-08 11:55 21.21561 105.63023 9270 ft 313 kts 226°
2026-05-08 11:55 21.20057 105.61355 8608 ft 311 kts 226°
2026-05-08 11:55 21.18671 105.59599 7943 ft 308 kts 241°
2026-05-08 11:55 21.18149 105.57433 7287 ft 298 kts 272°
2026-05-08 11:56 21.18534 105.55291 6659 ft 290 kts 285°
2026-05-08 11:56 21.19110 105.53245 6013 ft 285 kts 288°
2026-05-08 11:56 21.19730 105.51256 5608 ft 277 kts 289°
2026-05-08 11:56 21.20334 105.49337 5503 ft 266 kts 289°
2026-05-08 11:57 21.20895 105.47514 5532 ft 248 kts 288°
2026-05-08 11:57 21.21634 105.45921 5508 ft 235 kts 309°
2026-05-08 11:57 21.22854 105.44810 5509 ft 232 kts 333°
2026-05-08 11:57 21.24386 105.44331 5517 ft 230 kts 358°
2026-05-08 11:58 21.25950 105.44560 5526 ft 227 kts 19°
2026-05-08 11:58 21.27451 105.45086 5519 ft 227 kts 20°
2026-05-08 11:58 21.28843 105.45873 5522 ft 226 kts 39°
2026-05-08 11:59 21.30500 105.48637 5408 ft 224 kts 78°
2026-05-08 11:59 21.30570 105.50282 5193 ft 221 kts 98°
2026-05-08 11:59 21.30174 105.51865 4937 ft 219 kts 107°
2026-05-08 11:59 21.29725 105.53421 4663 ft 218 kts 107°
2026-05-08 12:00 21.29281 105.54963 4379 ft 216 kts 106°
2026-05-08 12:00 21.28843 105.56490 4099 ft 214 kts 106°
2026-05-08 12:00 21.28411 105.57995 3829 ft 212 kts 106°
2026-05-08 12:00 21.27979 105.59499 3557 ft 210 kts 106°
2026-05-08 12:01 21.27544 105.61010 3302 ft 206 kts 106°
2026-05-08 12:01 21.27138 105.62422 3050 ft 195 kts 105°
2026-05-08 12:01 21.26750 105.63773 2786 ft 185 kts 105°
2026-05-08 12:01 21.26381 105.65054 2541 ft 173 kts 104°
2026-05-08 12:02 21.26041 105.66230 2345 ft 159 kts 103°
2026-05-08 12:02 21.25719 105.67354 2132 ft 156 kts 103°
2026-05-08 12:02 21.25403 105.68454 1933 ft 153 kts 104°
2026-05-08 12:02 21.25099 105.69506 1740 ft 145 kts 103°
2026-05-08 12:03 21.24806 105.70526 1557 ft 142 kts 104°
2026-05-08 12:03 21.24515 105.71538 1368 ft 144 kts 104°
2026-05-08 12:03 21.24219 105.72564 1202 ft 144 kts 105°
2026-05-08 12:03 21.23924 105.73588 1014 ft 142 kts 105°
2026-05-08 12:04 21.23629 105.74609 838 ft 142 kts 106°
2026-05-08 12:04 21.23338 105.75625 662 ft 142 kts 105°
2026-05-08 12:04 21.23046 105.76633 453 ft 142 kts 107°
2026-05-08 12:04 21.22752 105.77631 313 ft 143 kts 103°
2026-05-08 12:05 21.22472 105.78649 122 ft 143 kts 106°
2026-05-08 12:05 21.22189 105.79602 46 ft 116 kts 106°
2026-05-08 12:05 21.22002 105.80253 48 ft 66 kts 107°
2026-05-08 12:05 21.21911 105.80581 51 ft 36 kts 107°
2026-05-08 12:06 21.21859 105.80746 48 ft 21 kts 110°
2026-05-08 12:06 21.21795 105.80857 49 ft 15 kts 132°
2026-05-08 12:06 21.21730 105.80930 48 ft 12 kts 131°
2026-05-08 12:06 21.21668 105.80990 48 ft 12 kts 165°
2026-05-08 12:07 21.21638 105.80925 48 ft 12 kts 282°
2026-05-08 12:07 21.21671 105.80804 49 ft 28 kts 287°
2026-05-08 12:07 21.21722 105.80627 46 ft 25 kts 287°
2026-05-08 12:07 21.21774 105.80447 49 ft 26 kts 287°
2026-05-08 12:08 21.21827 105.80262 49 ft 25 kts 287°
2026-05-08 12:08 21.21879 105.80080 49 ft 23 kts 287°
2026-05-08 12:08 21.21926 105.79913 48 ft 24 kts 287°
2026-05-08 12:08 21.21979 105.79733 48 ft 25 kts 287°
2026-05-08 12:09 21.22025 105.79572 47 ft 22 kts 287°
2026-05-08 12:09 21.22074 105.79408 49 ft 23 kts 288°
2026-05-08 12:09 21.22120 105.79248 49 ft 21 kts 287°
2026-05-08 12:09 21.22113 105.79153 48 ft 12 kts 209°
2026-05-08 12:10 21.22077 105.79078 49 ft 13 kts 277°
2026-05-08 12:10 21.22093 105.78986 49 ft 12 kts 252°
2026-05-08 12:10 21.22032 105.78952 49 ft 3 kts 197°
2026-05-08 12:10 21.22012 105.78946 49 ft 1 kts 195°
2026-05-08 12:11 21.22007 105.78944 46 ft 0 kts 198°